﻿測定場所 (Monitoring sites),日付 (Measurement date),時間 (Measurement time),線量率 最大値 (max) μGy/h,線量率 最小値 (min) μGy/h,線量率 平均値 (average) μGy/h,
大田 (Ota),2015-08-09,23:01～24:00,0.0463,0.0386,0.0408,
大田 (Ota),2015-08-09,22:01～23:00,0.0437,0.0371,0.0407,
大田 (Ota),2015-08-09,21:01～22:00,0.0443,0.0380,0.0406,
大田 (Ota),2015-08-09,20:01～21:00,0.0440,0.0371,0.0406,
大田 (Ota),2015-08-09,19:01～20:00,0.0438,0.0367,0.0405,
大田 (Ota),2015-08-09,18:01～19:00,0.0440,0.0370,0.0405,
大田 (Ota),2015-08-09,17:01～18:00,0.0435,0.0368,0.0406,
大田 (Ota),2015-08-09,16:01～17:00,0.0447,0.0372,0.0405,
大田 (Ota),2015-08-09,15:01～16:00,0.0433,0.0379,0.0402,
大田 (Ota),2015-08-09,14:01～15:00,0.0445,0.0373,0.0408,
大田 (Ota),2015-08-09,13:01～14:00,0.0436,0.0368,0.0408,
大田 (Ota),2015-08-09,12:01～13:00,0.0444,0.0372,0.0408,
大田 (Ota),2015-08-09,11:01～12:00,0.0453,0.0371,0.0409,
大田 (Ota),2015-08-09,10:01～11:00,0.0445,0.0385,0.0412,
大田 (Ota),2015-08-09,09:01～10:00,0.0435,0.0382,0.0410,
大田 (Ota),2015-08-09,08:01～09:00,0.0441,0.0381,0.0409,
大田 (Ota),2015-08-09,07:01～08:00,0.0452,0.0379,0.0412,
大田 (Ota),2015-08-09,06:01～07:00,0.0435,0.0373,0.0408,
大田 (Ota),2015-08-09,05:01～06:00,0.0436,0.0364,0.0406,
大田 (Ota),2015-08-09,04:01～05:00,0.0455,0.0370,0.0409,
大田 (Ota),2015-08-09,03:01～04:00,0.0441,0.0373,0.0408,
大田 (Ota),2015-08-09,02:01～03:00,0.0435,0.0369,0.0406,
大田 (Ota),2015-08-09,01:01～02:00,0.0447,0.0369,0.0408,
大田 (Ota),2015-08-09,00:01～01:00,0.0439,0.0372,0.0405,
大田 (Ota),2015-08-08,23:01～24:00,0.0434,0.0376,0.0407,
大田 (Ota),2015-08-08,22:01～23:00,0.0433,0.0378,0.0406,
大田 (Ota),2015-08-08,21:01～22:00,0.0443,0.0382,0.0408,
大田 (Ota),2015-08-08,20:01～21:00,0.0441,0.0377,0.0406,
大田 (Ota),2015-08-08,19:01～20:00,0.0431,0.0367,0.0406,
大田 (Ota),2015-08-08,18:01～19:00,0.0439,0.0374,0.0407,
大田 (Ota),2015-08-08,17:01～18:00,0.0431,0.0372,0.0408,
大田 (Ota),2015-08-08,16:01～17:00,0.0441,0.0379,0.0410,
大田 (Ota),2015-08-08,15:01～16:00,0.0448,0.0367,0.0409,
大田 (Ota),2015-08-08,14:01～15:00,0.0449,0.0369,0.0411,
大田 (Ota),2015-08-08,13:01～14:00,0.0440,0.0373,0.0407,
大田 (Ota),2015-08-08,12:01～13:00,0.0432,0.0388,0.0410,
大田 (Ota),2015-08-08,11:01～12:00,0.0449,0.0372,0.0408,
大田 (Ota),2015-08-08,10:01～11:00,0.0437,0.0387,0.0409,
大田 (Ota),2015-08-08,09:01～10:00,0.0449,0.0365,0.0409,
大田 (Ota),2015-08-08,08:01～09:00,0.0443,0.0375,0.0409,
大田 (Ota),2015-08-08,07:01～08:00,0.0437,0.0381,0.0408,
大田 (Ota),2015-08-08,06:01～07:00,0.0441,0.0376,0.0409,
大田 (Ota),2015-08-08,05:01～06:00,0.0440,0.0373,0.0409,
大田 (Ota),2015-08-08,04:01～05:00,0.0436,0.0378,0.0409,
大田 (Ota),2015-08-08,03:01～04:00,0.0432,0.0374,0.0407,
大田 (Ota),2015-08-08,02:01～03:00,0.0445,0.0371,0.0407,
大田 (Ota),2015-08-08,01:01～02:00,0.0458,0.0369,0.0411,
大田 (Ota),2015-08-08,00:01～01:00,0.0449,0.0370,0.0404,
大田 (Ota),2015-08-07,23:01～24:00,0.0443,0.0382,0.0408,
大田 (Ota),2015-08-07,22:01～23:00,0.0440,0.0370,0.0406,
大田 (Ota),2015-08-07,21:01～22:00,0.0437,0.0380,0.0406,
大田 (Ota),2015-08-07,20:01～21:00,0.0434,0.0374,0.0406,
大田 (Ota),2015-08-07,19:01～20:00,0.0431,0.0369,0.0406,
大田 (Ota),2015-08-07,18:01～19:00,0.0443,0.0379,0.0408,
大田 (Ota),2015-08-07,17:01～18:00,0.0439,0.0376,0.0406,
大田 (Ota),2015-08-07,16:01～17:00,0.0441,0.0383,0.0406,
大田 (Ota),2015-08-07,15:01～16:00,0.0436,0.0387,0.0412,
大田 (Ota),2015-08-07,14:01～15:00,0.0443,0.0389,0.0414,
大田 (Ota),2015-08-07,13:01～14:00,0.0454,0.0381,0.0414,
大田 (Ota),2015-08-07,12:01～13:00,0.0437,0.0385,0.0414,
大田 (Ota),2015-08-07,11:01～12:00,0.0442,0.0383,0.0415,
大田 (Ota),2015-08-07,10:01～11:00,0.0442,0.0381,0.0412,
大田 (Ota),2015-08-07,09:01～10:00,0.0449,0.0384,0.0414,
大田 (Ota),2015-08-07,08:01～09:00,0.0444,0.0383,0.0411,
大田 (Ota),2015-08-07,07:01～08:00,0.0434,0.0379,0.0404,
大田 (Ota),2015-08-07,06:01～07:00,0.0430,0.0383,0.0406,
大田 (Ota),2015-08-07,05:01～06:00,0.0434,0.0366,0.0404,
大田 (Ota),2015-08-07,04:01～05:00,0.0438,0.0370,0.0404,
大田 (Ota),2015-08-07,03:01～04:00,0.0427,0.0362,0.0399,
大田 (Ota),2015-08-07,02:01～03:00,0.0440,0.0382,0.0406,
大田 (Ota),2015-08-07,01:01～02:00,0.0439,0.0373,0.0403,
大田 (Ota),2015-08-07,00:01～01:00,0.0428,0.0375,0.0402,
大田 (Ota),2015-08-06,23:01～24:00,0.0434,0.0372,0.0400,
大田 (Ota),2015-08-06,22:01～23:00,0.0434,0.0372,0.0406,
大田 (Ota),2015-08-06,21:01～22:00,0.0431,0.0373,0.0405,
大田 (Ota),2015-08-06,20:01～21:00,0.0438,0.0373,0.0405,
大田 (Ota),2015-08-06,19:01～20:00,0.0429,0.0381,0.0403,
大田 (Ota),2015-08-06,18:01～19:00,0.0438,0.0371,0.0404,
大田 (Ota),2015-08-06,17:01～18:00,0.0461,0.0367,0.0403,
大田 (Ota),2015-08-06,16:01～17:00,0.0426,0.0364,0.0400,
大田 (Ota),2015-08-06,15:01～16:00,0.0431,0.0381,0.0404,
大田 (Ota),2015-08-06,14:01～15:00,0.0431,0.0371,0.0403,
大田 (Ota),2015-08-06,13:01～14:00,0.0425,0.0378,0.0402,
大田 (Ota),2015-08-06,12:01～13:00,0.0436,0.0376,0.0403,
大田 (Ota),2015-08-06,11:01～12:00,0.0427,0.0376,0.0403,
大田 (Ota),2015-08-06,10:01～11:00,0.0433,0.0369,0.0404,
大田 (Ota),2015-08-06,09:01～10:00,0.0432,0.0369,0.0401,
大田 (Ota),2015-08-06,08:01～09:00,0.0437,0.0371,0.0405,
大田 (Ota),2015-08-06,07:01～08:00,0.0424,0.0366,0.0399,
大田 (Ota),2015-08-06,06:01～07:00,0.0438,0.0370,0.0400,
大田 (Ota),2015-08-06,05:01～06:00,0.0423,0.0374,0.0398,
大田 (Ota),2015-08-06,04:01～05:00,0.0439,0.0370,0.0407,
大田 (Ota),2015-08-06,03:01～04:00,0.0437,0.0362,0.0399,
大田 (Ota),2015-08-06,02:01～03:00,0.0453,0.0367,0.0404,
大田 (Ota),2015-08-06,01:01～02:00,0.0434,0.0367,0.0400,
大田 (Ota),2015-08-06,00:01～01:00,0.0432,0.0379,0.0402,
大田 (Ota),2015-08-05,23:01～24:00,0.0430,0.0368,0.0403,
大田 (Ota),2015-08-05,22:01～23:00,0.0437,0.0368,0.0402,
大田 (Ota),2015-08-05,21:01～22:00,0.0452,0.0367,0.0402,
大田 (Ota),2015-08-05,20:01～21:00,0.0441,0.0371,0.0402,
大田 (Ota),2015-08-05,19:01～20:00,0.0446,0.0378,0.0402,
大田 (Ota),2015-08-05,18:01～19:00,0.0431,0.0367,0.0403,
大田 (Ota),2015-08-05,17:01～18:00,0.0439,0.0372,0.0404,
大田 (Ota),2015-08-05,16:01～17:00,0.0437,0.0361,0.0402,
大田 (Ota),2015-08-05,15:01～16:00,0.0433,0.0369,0.0402,
大田 (Ota),2015-08-05,14:01～15:00,0.0450,0.0374,0.0405,
大田 (Ota),2015-08-05,13:01～14:00,0.0438,0.0372,0.0402,
大田 (Ota),2015-08-05,12:01～13:00,0.0440,0.0369,0.0405,
大田 (Ota),2015-08-05,11:01～12:00,0.0429,0.0370,0.0402,
大田 (Ota),2015-08-05,10:01～11:00,0.0432,0.0366,0.0399,
大田 (Ota),2015-08-05,09:01～10:00,0.0436,0.0368,0.0403,
大田 (Ota),2015-08-05,08:01～09:00,0.0437,0.0371,0.0403,
大田 (Ota),2015-08-05,07:01～08:00,0.0434,0.0373,0.0402,
大田 (Ota),2015-08-05,06:01～07:00,0.0434,0.0377,0.0402,
大田 (Ota),2015-08-05,05:01～06:00,0.0429,0.0374,0.0403,
大田 (Ota),2015-08-05,04:01～05:00,0.0436,0.0372,0.0402,
大田 (Ota),2015-08-05,03:01～04:00,0.0454,0.0362,0.0402,
大田 (Ota),2015-08-05,02:01～03:00,0.0431,0.0374,0.0404,
大田 (Ota),2015-08-05,01:01～02:00,0.0442,0.0367,0.0402,
大田 (Ota),2015-08-05,00:01～01:00,0.0438,0.0370,0.0403,
大田 (Ota),2015-08-04,23:01～24:00,0.0431,0.0376,0.0404,
大田 (Ota),2015-08-04,22:01～23:00,0.0439,0.0369,0.0400,
大田 (Ota),2015-08-04,21:01～22:00,0.0451,0.0369,0.0404,
大田 (Ota),2015-08-04,20:01～21:00,0.0433,0.0376,0.0402,
大田 (Ota),2015-08-04,19:01～20:00,0.0431,0.0370,0.0401,
大田 (Ota),2015-08-04,18:01～19:00,0.0445,0.0377,0.0402,
大田 (Ota),2015-08-04,17:01～18:00,0.0434,0.0369,0.0405,
大田 (Ota),2015-08-04,16:01～17:00,0.0432,0.0364,0.0401,
大田 (Ota),2015-08-04,15:01～16:00,0.0437,0.0362,0.0400,
大田 (Ota),2015-08-04,14:01～15:00,0.0446,0.0377,0.0408,
大田 (Ota),2015-08-04,13:01～14:00,0.0435,0.0379,0.0404,
大田 (Ota),2015-08-04,12:01～13:00,0.0438,0.0373,0.0406,
大田 (Ota),2015-08-04,11:01～12:00,0.0441,0.0382,0.0407,
大田 (Ota),2015-08-04,10:01～11:00,0.0443,0.0378,0.0409,
大田 (Ota),2015-08-04,09:01～10:00,0.0447,0.0380,0.0408,
大田 (Ota),2015-08-04,08:01～09:00,0.0434,0.0365,0.0403,
大田 (Ota),2015-08-04,07:01～08:00,0.0458,0.0369,0.0410,
大田 (Ota),2015-08-04,06:01～07:00,0.0440,0.0369,0.0405,
大田 (Ota),2015-08-04,05:01～06:00,0.0441,0.0382,0.0408,
大田 (Ota),2015-08-04,04:01～05:00,0.0442,0.0366,0.0407,
大田 (Ota),2015-08-04,03:01～04:00,0.0435,0.0367,0.0406,
大田 (Ota),2015-08-04,02:01～03:00,0.0439,0.0374,0.0407,
大田 (Ota),2015-08-04,01:01～02:00,0.0442,0.0372,0.0404,
大田 (Ota),2015-08-04,00:01～01:00,0.0443,0.0377,0.0406,
大田 (Ota),2015-08-03,23:01～24:00,0.0457,0.0379,0.0404,
大田 (Ota),2015-08-03,22:01～23:00,0.0441,0.0366,0.0408,
大田 (Ota),2015-08-03,21:01～22:00,0.0429,0.0380,0.0404,
大田 (Ota),2015-08-03,20:01～21:00,0.0447,0.0379,0.0410,
大田 (Ota),2015-08-03,19:01～20:00,0.0445,0.0373,0.0405,
大田 (Ota),2015-08-03,18:01～19:00,0.0439,0.0367,0.0403,
大田 (Ota),2015-08-03,17:01～18:00,0.0437,0.0368,0.0407,
大田 (Ota),2015-08-03,16:01～17:00,0.0439,0.0380,0.0408,
大田 (Ota),2015-08-03,15:01～16:00,0.0430,0.0371,0.0403,
大田 (Ota),2015-08-03,14:01～15:00,0.0436,0.0374,0.0405,
大田 (Ota),2015-08-03,13:01～14:00,0.0446,0.0370,0.0407,
大田 (Ota),2015-08-03,12:01～13:00,0.0436,0.0370,0.0409,
大田 (Ota),2015-08-03,11:01～12:00,0.0431,0.0373,0.0405,
大田 (Ota),2015-08-03,10:01～11:00,0.0449,0.0385,0.0406,
大田 (Ota),2015-08-03,09:01～10:00,0.0443,0.0376,0.0407,
大田 (Ota),2015-08-03,08:01～09:00,0.0435,0.0370,0.0404,
大田 (Ota),2015-08-03,07:01～08:00,0.0442,0.0370,0.0408,
大田 (Ota),2015-08-03,06:01～07:00,0.0442,0.0379,0.0405,
大田 (Ota),2015-08-03,05:01～06:00,0.0455,0.0373,0.0404,
大田 (Ota),2015-08-03,04:01～05:00,0.0447,0.0378,0.0405,
大田 (Ota),2015-08-03,03:01～04:00,0.0438,0.0379,0.0408,
大田 (Ota),2015-08-03,02:01～03:00,0.0434,0.0378,0.0407,
大田 (Ota),2015-08-03,01:01～02:00,0.0437,0.0375,0.0406,
大田 (Ota),2015-08-03,00:01～01:00,0.0436,0.0384,0.0407,
